Regional Weather Roundup
Issued by NWS

Home | Current Version | Previous Version | Graphics & Text | Print | Product List | Glossary On
Versions: 1 2 3 4 5 6 7 8 9 10 11 12 13 14 15 16 17 18 19 20 21 22 23 24 25 26 27 28 29 30 31 32 33 34 35 36 37 38 39 40 41 42 43 44 45 46 47 48 49 50
000
ASUS43 KOAX 210210
RWRNE

WEATHER ROUNDUP FOR NEBRASKA
NATIONAL WEATHER SERVICE OMAHA NE
900 PM CDT SAT SEP 20 2014

NOTES: SATELLITE DATA IS BEING USED TO AUGMENT CLOUD COVER ABOVE
       12000 FEET.
       "FAIR" INDICATES FEW OR NO CLOUDS BELOW 12,000 FEET WITH NO
       SIGNIFICANT WEATHER AND/OR OBSTRUCTIONS TO VISIBILITY.

  * THESE STATIONS DO NOT REPORT WEATHER SUCH AS RAIN...SNOW OR FOG.

NEZ001>004-019>022-054>056-210300-
NEBRASKA PANHANDLE

CITY           SKY/WX    TMP DP  RH WIND       PRES   REMARKS
SCOTTSBLUFF    CLEAR     65  41  41 NE8       30.22R
ALLIANCE       CLEAR     60  41  49 NE9       30.23R
CHADRON        CLEAR     61  41  47 E5        30.23R
KIMBALL        CLEAR     62  42  47 NE8       30.25R
SIDNEY         CLEAR     68  44  42 NE10      30.23R
$$

NEZ057>060-069>072-079>082-210300-
SOUTHWEST NEBRASKA

CITY           SKY/WX    TMP DP  RH WIND       PRES   REMARKS
NORTH PLATTE   CLEAR     67  47  48 N9        30.13R
IMPERIAL       CLEAR     66  51  58 N8        30.15R
LEXINGTON      CLEAR     67  52  58 N5        30.11R
MCCOOK         CLEAR     69  52  54 N7        30.10R HAZE
OGALLALA       CLEAR     69  50  50 NE9       30.17R
$$

NEZ005>010-023>029-035>040-094-210300-
NORTH CENTRAL NEBRASKA

CITY           SKY/WX    TMP DP  RH WIND       PRES   REMARKS
VALENTINE      CLEAR     66  40  38 N8        30.15R
AINSWORTH      CLEAR     61  44  53 NW7       30.15R
BROKEN BOW     CLEAR     64  47  53 N10       30.11R
O`NEILL        CLEAR     64  46  50 NW8       30.09R
ORD            CLEAR     64  49  57 NW6       30.08R
THEDFORD       CLEAR     69  44  41 N10       30.17R
$$

NEZ041-046>049-061>064-073>077-083>087-210300-
SOUTH CENTRAL NEBRASKA

CITY           SKY/WX    TMP DP  RH WIND       PRES   REMARKS
GRAND ISLAND   CLEAR     68  53  58 N8        30.06R
AURORA         CLEAR     66  54  63 N7        30.05R
HASTINGS       CLEAR     69  53  56 N5        30.06R
HEBRON         CLEAR     66  57  71 CALM      30.03R
HOLDREGE       CLEAR     69  52  54 N7        30.09R
KEARNEY *      CLEAR     70  52  52 NW7       30.09R
YORK           CLEAR     66  57  72 NW9       30.03R
$$

NEZ011>018-030>034-042>045-210300-
NORTHEAST NEBRASKA

CITY           SKY/WX    TMP DP  RH WIND       PRES   REMARKS
NORFOLK        CLEAR     70  49  47 NW9       30.03R
ALBION         CLEAR     69  47  46 N6        30.06R
BLAIR          CLEAR     73  57  58 W6        29.97R
COLUMBUS *     CLEAR     64  54  68 NW12      30.03R
FREMONT        CLEAR     67  57  71 W6        29.99R
TEKAMAH        CLEAR     74  55  51 NW10      29.96R
WAYNE          CLEAR     69  51  53 N12G17    30.02R
$$

NEZ050>053-065>068-078-088>093-210300-
SOUTHEAST NEBRASKA

CITY           SKY/WX    TMP DP  RH WIND       PRES   REMARKS
LINCOLN        CLEAR     70  59  68 CALM      29.99R
OMAHA EPPLEY   PTCLDY    72  59  63 W5        29.95R
BEATRICE       CLEAR     69  57  67 CALM      30.00R
FALLS CITY     PTCLDY    73  69  87 W8        29.97R
NEBRASKA CITY    N/A     71  53  52 W7        29.97R
PLATTSMOUTH    CLEAR     71  57  62 SW6       29.96R
$$

NEZ044-045-051>053-067-210300-
OMAHA AREA

CITY           SKY/WX    TMP DP  RH WIND       PRES   REMARKS
OMAHA EPPLEY   PTCLDY    72  59  63 W5        29.95R
BLAIR          CLEAR     73  57  58 W6        29.97R
FREMONT        CLEAR     67  57  71 W6        29.99R
MILLARD        CLEAR     69  62  79 CALM      29.96R
OFFUTT AFB     CLEAR     65  64  99 NW1       29.95R
PLATTSMOUTH    CLEAR     71  57  62 SW6       29.96R
WAHOO          FAIR      70  57  63 W6        29.98R
$$



USA.gov is the U.S. government's official web portal to all federal, state and local government web resources and services.